Location: Goodfare
(55.2420°N, 119.7689°W)
Time: 14:23:45
(UTC+00:00)

ISS - Pass Details

Date: 05 December 2021
Orbit: 413 x 422 km, 51.6° (Epoch: 27 January)

Event Time Altitude Azimuth Distance (km) Brightness Sun altitude
Rises 00:27:24 0° 269° (W) 2,391 1.3 -7.3°
Reaches altitude 10° 00:29:35 10° 262° (W) 1,522 0.4 -7.6°
Maximum altitude 00:32:48 39° 192° (SSW) 652 -2.4 -8.0°
Drops below altitude 10° 00:36:00 10° 122° (ESE) 1,513 -1.2 -8.4°
Enters shadow 00:37:56 - 115° (ESE) 2,282 -0.4 -8.7°
